This is the latest recevied weather packets stored in our database for station/object SV4JYD-13. If no packets are shown the sender has not sent any weather packets the latest 10 day(s).
| Time | Temp. | Humidity | Pressure | Rain* | Wind** | Luminosity | Snow |
|---|---|---|---|---|---|---|---|
| 1777800365 | 8.89° C | 99% | 1020 hPa | 0 mm | - | - | - |
| 1777799465 | 8.89° C | 98% | 1021 hPa | 0 mm | - | - | - |
| 1777798565 | 8.33° C | 97% | 1021 hPa | 0 mm | - | - | - |
| 1777797664 | 7.78° C | 94% | 1020 hPa | 0 mm | - | - | - |
| 1777796764 | 8.33° C | 93% | 1020 hPa | 0 mm | - | - | - |
| 1777795864 | 7.78° C | 92% | 1020 hPa | 0 mm | - | - | - |
| 1777794964 | 7.78° C | 92% | 1020 hPa | 0 mm | - | - | - |
| 1777794063 | 7.22° C | 91% | 1020 hPa | 0 mm | - | - | - |
| 1777793163 | 6.67° C | 91% | 1019 hPa | 0 mm | - | - | - |
| 1777792263 | 7.22° C | 91% | 1019 hPa | 0 mm | - | - | - |
| 1777791363 | 7.78° C | 91% | 1019 hPa | 0 mm | - | - | - |
| 1777790463 | 8.33° C | 91% | 1019 hPa | 0 mm | - | - | - |
| 1777789562 | 8.89° C | 92% | 1018 hPa | 0 mm | - | - | - |
| 1777788662 | 9.44° C | 93% | 1018 hPa | 0 mm | - | - | - |
| 1777787762 | 10° C | 96% | 1018 hPa | 0 mm | - | - | - |
| 1777786861 | 10° C | 92% | 1018 hPa | 0 mm | - | - | - |
| 1777785961 | 9.44° C | 92% | 1018 hPa | 0 mm | - | - | - |
| 1777785061 | 8.89° C | 90% | 1018 hPa | 0 mm | - | - | - |
| 1777784161 | 7.78° C | 84% | 1018 hPa | 0 mm | - | - | - |
| 1777783260 | 7.78° C | 88% | 1018 hPa | 0 mm | - | - | - |
| 1777782360 | 8.33° C | 94% | 1018 hPa | 0 mm | - | - | - |
| 1777781460 | 8.33° C | 94% | 1018 hPa | 0 mm | - | - | - |
| 1777780560 | 8.89° C | 95% | 1018 hPa | 0 mm | - | - | - |
| 1777779659 | 9.44° C | 96% | 1018 hPa | 0 mm | - | - | - |
| 1777778759 | 8.89° C | 98% | 1018 hPa | 0 mm | - | - | - |
* Rain latest hour (hover to see other rain measurements)
** Current wind speed in m/s (hover to see current wind gust speed)